HARMALA Weather Reports


Display with metric or nautical units.
time (UTC)temp
F
wind
direction
speed
MPH
gust
MPH
rain 1hr
in
rain 24hr
in
rain mn
in
humidity
%
barometer
mb
20260906230458 43 0.0 0.0 0.00 0.00 0.00 83 1015.6
20260906224500 43 0.0 0.0 0.00 0.00 0.00 82 1015.5
20260906222500 44 0.0 0.0 0.00 0.00 0.00 80 1015.4
20260906220128 45 0.0 0.0 0.00 0.00 0.00 77 1015.2
20260906212458 45 0.0 0.0 0.00 0.00 0.00 77 1015.0
20260906210128 45 0.0 0.0 0.00 0.00 0.00 78 1014.8
20260906204129 46 0.0 0.0 0.00 0.00 0.00 76 1014.8
20260906200500 47 0.0 0.0 0.00 0.00 0.00 71 1014.3
20260906194458 47 0.0 0.0 0.00 0.00 0.00 71 1014.1
20260906192458 48 0.0 0.0 0.00 0.00 0.00 70 1014.0
20260906190457 48 0.0 0.0 0.00 0.00 0.00 70 1013.8
20260906184458 49 0.0 0.0 0.00 0.00 0.00 67 1013.5
20260906182129 49 0.0 0.0 0.00 0.00 0.00 66 1013.3
20260906180127 50 0.0 0.0 0.00 0.00 0.00 63 1012.8
20260906172457 52 0.0 0.0 0.00 0.00 0.00 56 1012.4
20260906170456 53 0.0 0.0 0.00 0.00 0.00 53 1012.2
20260906164459 53 0.0 0.0 0.00 0.00 0.00 55 1011.9
20260906162456 54 0.0 0.0 0.00 0.00 0.00 52 1011.7
20260906160126 55 0.0 0.0 0.00 0.00 0.00 53 1011.5
20260906154128 56 0.0 0.0 0.00 0.00 0.00 50 1011.3
20260906152457 56 0.0 0.0 0.00 0.00 0.00 45 1011.1
20260906150455 57 0.0 0.0 0.00 0.00 0.00 49 1010.8
20260906144127 57 0.0 0.0 0.00 0.01 0.00 49 1010.5
20260906142456 57 0.0 0.0 0.00 0.01 0.00 50 1010.5
20260906134455 57 0.0 0.0 0.00 0.01 0.00 46 1010.2
20260906132455 57 0.0 0.0 0.00 0.01 0.00 49 1010.0
20260906130457 57 0.0 0.0 0.00 0.01 0.00 48 1009.8
20260906124457 57 0.0 0.0 0.00 0.01 0.00 50 1009.7
20260906122456 57 0.0 0.0 0.00 0.01 0.00 47 1009.6
20260906112456 56 0.0 0.0 0.00 0.01 0.00 51 1009.1
20260906104455 56 0.0 0.0 0.00 0.01 0.00 54 1008.6
20260906102456 56 0.0 0.0 0.00 0.01 0.00 54 1008.1
20260906100457 55 0.0 0.0 0.00 0.01 0.00 53 1007.9
20260906094457 55 0.0 0.0 0.00 0.01 0.00 56 1007.8
20260906090457 53 0.0 0.0 0.00 0.01 0.00 56 1007.6
20260906084455 53 0.0 0.0 0.00 0.01 0.00 61 1007.3
20260906082456 52 0.0 0.0 0.00 0.01 0.00 65 1007.3
20260906080456 52 0.0 0.0 0.00 0.01 0.00 63 1007.2
20260906074456 51 0.0 0.0 0.00 0.01 0.00 66 1007.0
20260906072454 51 0.0 0.0 0.00 0.01 0.00 68 1006.8
20260906064125 51 0.0 0.0 0.00 0.01 0.00 66 1006.3
20260906062126 51 0.0 0.0 0.00 0.01 0.00 73 1006.1
20260906060125 50 0.0 0.0 0.00 0.01 0.00 75 1006.0
20260906054455 49 0.0 0.0 0.00 0.01 0.00 78 1005.8
20260906052456 49 0.0 0.0 0.00 0.01 0.00 83 1005.6
20260906050456 48 0.0 0.0 0.00 0.01 0.00 88 1005.5
20260906044126 47 0.0 0.0 0.00 0.01 0.00 91 1005.4
20260906040455 47 0.0 0.0 0.00 0.01 0.00 91 1005.1
20260906034455 47 0.0 0.0 0.00 0.01 0.00 91 1005.0
20260906032455 47 0.0 0.0 0.00 0.01 0.00 89 1004.8
20260906030456 49 0.0 0.0 0.00 0.01 0.00 85 1004.6
20260906024455 49 0.0 0.0 0.00 0.01 0.00 83 1004.5
20260906022456 50 0.0 0.0 0.00 0.01 0.00 79 1004.2
20260906014456 50 0.0 0.0 0.00 0.01 0.00 79 1003.8
20260906012454 50 0.0 0.0 0.00 0.01 0.00 80 1003.5
20260906010456 50 0.0 0.0 0.00 0.01 0.00 79 1003.3
20260906004457 50 0.0 0.0 0.00 0.01 0.00 79 1003.1
20260906002455 50 0.0 0.0 0.00 0.01 0.00 84 1002.8
20260906000455 50 0.0 0.0 0.00 0.01 0.00 86 1002.6
20260905234454 50 0.0 0.0 0.00 0.01 0.00 86 1002.5